.
WxDataArchive / Data Records for 2011-07-17
2011-07-16 July 2011 2011-07-18

Data Records for Sunday, 17 July 2011

Time	Temp	Chill	HIndex	Humid	Dewpt	 Wind 	HiWind	WindDir	Rain 	Barom 
-----	----	-----	------	-----	-----	------	------	-------	-----	----- 
00:00	75.4	75.4	76.6	75	66.9	0	0	---	0.00	30.040 
00:05	75.3	75.3	76.5	75	66.8	0	0	---	0.00	30.040 
00:10	75.1	75.1	76.3	75	66.6	0	0	---	0.00	30.040 
00:15	74.9	74.9	74.9	76	66.8	0	0	---	0.00	30.045 
00:20	74.7	74.7	74.7	76	66.6	0	0	---	0.00	30.045 
00:25	74.6	74.6	74.6	77	66.9	0	0	---	0.00	30.045 
00:30	74.4	74.4	74.4	77	66.7	0	0	---	0.00	30.047 
00:35	74.4	74.4	74.4	77	66.7	0	0	---	0.00	30.047 
00:40	74.2	74.2	74.2	78	66.9	0	0	---	0.00	30.047 
00:45	74.0	74.0	74.0	78	66.7	0	0	---	0.00	30.048 
00:50	74.0	74.0	74.0	78	66.7	0	0	---	0.00	30.048 
00:55	73.9	73.9	73.9	79	67.0	0	0	---	0.00	30.048 
01:00	73.7	73.7	73.7	79	66.8	0	0	---	0.00	30.049 
01:05	73.5	73.5	73.5	79	66.6	0	0	---	0.00	30.049 
01:10	73.5	73.5	73.5	79	66.6	0	0	---	0.00	30.049 
01:15	73.3	73.3	73.3	80	66.7	0	0	---	0.00	30.049 
01:20	73.3	73.3	73.3	80	66.7	0	0	---	0.00	30.049 
01:25	73.2	73.2	73.2	80	66.6	0	0	---	0.00	30.049 
01:30	73.2	73.2	73.2	81	67.0	0	0	---	0.00	30.049 
01:35	73.0	73.0	73.0	81	66.8	0	0	---	0.00	30.049 
01:40	73.0	73.0	73.0	81	66.8	0	0	---	0.00	30.049 
01:45	72.8	72.8	72.8	81	66.6	0	0	---	0.00	30.048 
01:50	72.8	72.8	72.8	82	67.0	0	0	---	0.00	30.048 
01:55	72.8	72.8	72.8	82	67.0	0	0	---	0.00	30.048 
02:00	72.7	72.7	72.7	83	67.2	0	0	---	0.00	30.049 
02:05	72.7	72.7	72.7	83	67.2	0	0	---	0.00	30.049 
02:10	72.5	72.5	72.5	83	67.0	0	0	---	0.00	30.049 
02:15	72.3	72.3	72.3	84	67.2	0	0	---	0.00	30.047 
02:20	72.3	72.3	72.3	84	67.2	0	0	---	0.00	30.047 
02:25	72.1	72.1	72.1	84	67.0	0	0	---	0.00	30.047 
02:30	72.1	72.1	72.1	84	67.0	0	0	---	0.00	30.048 
02:35	72.0	72.0	72.0	84	66.9	0	0	---	0.00	30.048 
02:40	71.8	71.8	71.8	84	66.7	0	0	---	0.00	30.048 
02:45	71.8	71.8	71.8	84	66.7	0	0	---	0.00	30.048 
02:50	71.6	71.6	71.6	85	66.8	0	0	---	0.00	30.048 
02:55	71.5	71.5	71.5	85	66.7	0	0	---	0.00	30.048 
03:00	71.5	71.5	71.5	85	66.7	0	0	---	0.00	30.048 
03:05	71.3	71.3	71.3	86	66.9	0	0	---	0.00	30.048 
03:10	71.3	71.3	71.3	86	66.9	0	0	---	0.00	30.048 
03:15	71.1	71.1	71.1	87	67.0	0	0	---	0.00	30.048 
03:20	71.1	71.1	71.1	87	67.0	0	0	---	0.00	30.048 
03:25	70.9	70.9	70.9	87	66.8	0	0	---	0.00	30.048 
03:30	70.9	70.9	70.9	87	66.8	0	0	---	0.00	30.048 
03:35	70.8	70.8	70.8	87	66.7	0	0	---	0.00	30.048 
03:40	70.8	70.8	70.8	88	67.1	0	0	---	0.00	30.048 
03:45	70.8	70.8	70.8	88	67.1	0	0	---	0.00	30.047 
03:50	70.8	70.8	70.8	88	67.1	0	0	---	0.00	30.047 
03:55	70.6	70.6	70.6	88	66.9	0	0	---	0.00	30.047 
04:00	70.6	70.6	70.6	88	66.9	0	0	---	0.00	30.047 
04:05	70.4	70.4	70.4	88	66.7	0	0	---	0.00	30.047 
04:10	70.4	70.4	70.4	89	67.0	0	0	---	0.00	30.047 
04:15	70.3	70.3	70.3	89	66.9	0	0	---	0.00	30.050 
04:20	70.3	70.3	70.3	89	66.9	0	0	---	0.00	30.050 
04:25	70.1	70.1	70.1	89	66.7	0	0	---	0.00	30.050 
04:30	70.1	70.1	70.1	89	66.7	0	0	---	0.00	30.051 
04:35	69.9	69.9	69.9	89	66.5	0	0	---	0.00	30.051 
04:40	69.9	69.9	69.9	89	66.5	0	0	---	0.00	30.051 
04:45	69.8	69.8	69.8	89	66.4	0	0	---	0.00	30.052 
04:50	69.8	69.8	69.8	89	66.4	0	0	---	0.00	30.052 
04:55	69.6	69.6	69.6	89	66.2	0	0	---	0.00	30.052 
05:00	69.6	69.6	69.6	89	66.2	0	0	---	0.00	30.050 
05:05	69.4	69.4	69.4	90	66.3	0	0	---	0.00	30.050 
05:10	69.4	69.4	69.4	90	66.3	0	0	---	0.00	30.050 
05:15	69.3	69.3	69.3	90	66.2	0	0	---	0.00	30.051 
05:20	69.3	69.3	69.3	90	66.2	0	0	---	0.00	30.051 
05:25	69.3	69.3	69.3	90	66.2	0	0	---	0.00	30.051 
05:30	69.1	69.1	69.1	90	66.0	0	0	---	0.00	30.060 
05:35	69.1	69.1	69.1	90	66.0	0	0	---	0.00	30.060 
05:40	69.1	69.1	69.1	90	66.0	0	0	---	0.00	30.060 
05:45	68.9	68.9	68.9	90	65.8	0	0	---	0.00	30.065 
05:50	68.9	68.9	68.9	90	65.8	0	0	---	0.00	30.065 
05:55	68.9	68.9	68.9	91	66.2	0	0	---	0.00	30.065 
06:00	68.8	68.8	68.8	91	66.1	0	0	---	0.00	30.066 
06:05	68.8	68.8	68.8	91	66.1	0	0	---	0.00	30.066 
06:10	68.6	68.6	68.6	91	65.9	0	0	---	0.00	30.066 
06:15	68.6	68.6	68.6	91	65.9	0	0	---	0.00	30.075 
06:20	68.6	68.6	68.6	91	65.9	0	0	---	0.00	30.075 
06:25	68.6	68.6	68.6	91	65.9	0	0	---	0.00	30.075 
06:30	68.6	68.6	68.6	91	65.9	0	0	---	0.00	30.080 
06:35	68.6	68.6	68.6	92	66.2	0	0	---	0.00	30.080 
06:40	68.6	68.6	68.6	92	66.2	0	0	---	0.00	30.080 
06:45	68.6	68.6	68.6	92	66.2	0	0	---	0.00	30.083 
06:50	68.6	68.6	68.6	92	66.2	0	0	---	0.00	30.083 
06:55	68.6	68.6	68.6	92	66.2	0	0	---	0.00	30.083 
07:00	68.8	68.8	68.8	92	66.4	0	0	---	0.00	30.083 
07:05	68.8	68.8	68.8	92	66.4	0	0	---	0.00	30.083 
07:10	68.9	68.9	68.9	92	66.5	0	0	---	0.00	30.083 
07:15	69.1	69.1	69.1	92	66.7	0	0	---	0.00	30.088 
07:20	69.3	69.3	69.3	92	66.9	0	0	---	0.00	30.088 
07:25	69.4	69.4	69.4	92	67.0	0	0	---	0.00	30.088 
07:30	69.9	69.9	69.9	92	67.5	0	0	---	0.00	30.085 
07:35	70.4	70.4	70.4	91	67.6	0	0	---	0.00	30.085 
07:40	71.1	71.1	71.1	90	68.0	0	0	---	0.00	30.085 
07:45	71.6	71.6	71.6	89	68.2	0	1	135	0.00	30.086 
07:50	72.1	72.1	72.1	87	68.0	0	0	---	0.00	30.086 
07:55	72.7	72.7	72.7	86	68.3	0	0	---	0.00	30.086 
08:00	73.5	73.5	73.5	83	68.0	0	0	---	0.00	30.092 
08:05	74.4	74.4	74.4	79	67.4	0	1	135	0.00	30.092 
08:10	75.3	75.3	76.3	77	67.6	0	1	135	0.00	30.092 
08:15	76.0	76.0	77.2	77	68.3	0	0	---	0.00	30.092 
08:20	76.7	76.7	78.3	75	68.2	0	1	135	0.00	30.092 
08:25	77.2	77.2	79.0	73	67.9	0	1	135	0.00	30.092 
08:30	77.9	77.9	79.9	72	68.1	0	1	135	0.00	30.091 
08:35	78.6	78.6	80.8	70	68.0	0	1	135	0.00	30.091 
08:40	79.4	79.4	81.9	69	68.3	0	1	135	0.00	30.091 
08:45	79.9	79.9	82.6	68	68.4	0	1	135	0.00	30.089 
08:50	80.5	80.5	83.5	68	68.9	0	1	135	0.00	30.089 
08:55	81.1	81.1	84.1	66	68.6	0	1	135	0.00	30.089 
09:00	81.6	81.6	84.6	64	68.2	0	1	135	0.00	30.089 
09:05	82.2	82.2	85.5	64	68.8	0	1	135	0.00	30.089 
09:10	82.6	82.6	85.7	62	68.2	0	1	135	0.00	30.089 
09:15	83.0	83.0	86.4	62	68.6	0	0	---	0.00	30.095 
09:20	83.4	83.4	87.0	62	69.0	0	0	---	0.00	30.095 
09:25	83.8	83.8	87.2	60	68.4	0	1	135	0.00	30.095 
09:30	83.2	83.2	86.2	60	67.8	0	1	135	0.00	30.100 
09:35	83.0	83.0	85.9	60	67.7	0	1	135	0.00	30.100 
09:40	83.0	83.0	85.9	60	67.7	0	1	135	0.00	30.100 
09:45	83.2	83.2	86.2	60	67.8	0	1	135	0.00	30.100 
09:50	84.1	84.1	87.2	58	67.7	0	1	135	0.00	30.100 
09:55	85.5	85.5	89.2	57	68.5	0	1	135	0.00	30.100 
10:00	85.7	85.7	88.9	55	67.6	0	1	135	0.00	30.098 
10:05	85.7	85.7	88.9	55	67.6	0	1	135	0.00	30.098 
10:10	85.9	85.9	88.9	54	67.3	0	1	135	0.00	30.098 
10:15	86.7	86.7	89.9	53	67.5	0	3	135	0.00	30.100 
10:20	86.7	86.7	89.6	52	66.9	0	2	135	0.00	30.100 
10:25	86.5	86.5	88.6	50	65.6	0	3	135	0.00	30.100 
10:30	86.5	86.5	89.3	52	66.7	0	1	135	0.00	30.103 
10:35	86.7	86.7	88.9	50	65.8	1	2	135	0.00	30.103 
10:40	87.4	87.4	90.7	52	67.6	0	1	135	0.00	30.103 
10:45	87.6	87.6	90.4	50	66.6	0	2	135	0.00	30.103 
10:50	87.8	87.8	91.1	51	67.4	1	3	135	0.00	30.103 
10:55	87.8	87.8	91.4	52	67.9	0	1	248	0.00	30.103 
11:00	88.2	88.2	91.0	49	66.6	1	4	248	0.00	30.105 
11:05	88.6	88.6	92.1	50	67.5	1	4	68	0.00	30.105 
11:10	88.6	88.6	91.3	48	66.4	1	3	292	0.00	30.105 
11:15	89.0	89.0	91.6	47	66.1	0	2	292	0.00	30.107 
11:20	89.9	89.9	92.7	46	66.3	0	1	315	0.00	30.107 
11:25	90.5	90.5	93.8	46	66.8	0	1	315	0.00	30.107 
11:30	91.0	91.0	93.8	44	66.0	1	4	112	0.00	30.104 
11:35	91.2	91.2	95.0	46	67.5	1	2	112	0.00	30.104 
11:40	91.0	91.0	93.8	44	66.0	1	3	112	0.00	30.104 
11:45	90.1	90.1	92.3	44	65.2	0	3	292	0.00	30.104 
11:50	89.9	89.9	92.7	46	66.3	1	3	45	0.00	30.104 
11:55	90.1	90.1	93.9	48	67.7	0	3	45	0.00	30.104 
12:00	90.3	90.3	93.0	45	66.0	0	2	22	0.00	30.102 
12:05	89.9	89.9	92.3	45	65.7	0	2	22	0.00	30.102 
12:10	90.3	90.3	92.6	44	65.4	1	3	22	0.00	30.102 
12:15	91.0	91.0	93.0	42	64.7	1	4	112	0.00	30.105 
12:20	91.4	91.4	92.8	40	63.6	1	4	90	0.00	30.105 
12:25	92.1	92.1	93.9	40	64.3	1	3	0	0.00	30.105 
12:30	91.8	91.8	93.4	40	64.0	1	3	45	0.00	30.103 
12:35	91.6	91.6	94.8	44	66.6	0	2	315	0.00	30.103 
12:40	92.1	92.1	94.4	41	65.0	1	3	315	0.00	30.103 
12:45	91.8	91.8	93.9	41	64.7	1	4	270	0.00	30.099 
12:50	91.4	91.4	94.0	43	65.7	1	4	270	0.00	30.099 
12:55	92.1	92.1	93.9	40	64.3	1	4	112	0.00	30.099 
13:00	92.3	92.3	94.3	40	64.4	1	3	68	0.00	30.097 
13:05	92.3	92.3	94.3	40	64.4	1	2	68	0.00	30.097 
13:10	91.6	91.6	93.1	40	63.8	1	2	68	0.00	30.097 
13:15	91.2	91.2	92.5	40	63.5	1	2	45	0.00	30.099 
13:20	91.8	91.8	93.4	40	64.0	0	2	338	0.00	30.099 
13:25	92.7	92.7	94.9	40	64.8	0	2	0	0.00	30.099 
13:30	93.4	93.4	94.8	37	63.2	0	2	0	0.00	30.093 
13:35	92.7	92.7	94.1	38	63.3	1	3	0	0.00	30.093 
13:40	91.6	91.6	92.7	39	63.1	1	4	315	0.00	30.093 
13:45	91.2	91.2	92.5	40	63.5	1	2	292	0.00	30.090 
13:50	91.2	91.2	92.9	41	64.2	1	3	292	0.00	30.090 
13:55	91.4	91.4	92.4	39	62.9	0	2	292	0.00	30.090 
14:00	91.6	91.6	92.7	39	63.1	0	1	292	0.00	30.091 
14:05	91.6	91.6	92.7	39	63.1	0	0	---	0.00	30.091 
14:10	91.6	91.6	93.1	40	63.8	0	1	292	0.00	30.091 
14:15	91.6	91.6	93.1	40	63.8	1	2	292	0.00	30.092 
14:20	91.2	91.2	92.5	40	63.5	1	3	292	0.00	30.092 
14:25	91.2	91.2	92.9	41	64.2	0	1	292	0.00	30.092 
14:30	91.8	91.8	93.9	41	64.7	0	2	292	0.00	30.084 
14:35	92.1	92.1	93.5	39	63.5	0	1	292	0.00	30.084 
14:40	92.3	92.3	94.7	41	65.1	0	2	292	0.00	30.084 
14:45	92.3	92.3	94.3	40	64.4	0	1	292	0.00	30.078 
14:50	91.8	91.8	93.4	40	64.0	0	3	292	0.00	30.078 
14:55	91.8	91.8	93.9	41	64.7	0	2	292	0.00	30.078 
15:00	92.3	92.3	94.7	41	65.1	0	2	292	0.00	30.077 
15:05	92.1	92.1	94.4	41	65.0	0	2	292	0.00	30.077 
15:10	91.6	91.6	94.4	43	65.9	0	2	292	0.00	30.077 
15:15	91.4	91.4	94.0	43	65.7	0	2	292	0.00	30.077 
15:20	91.4	91.4	93.6	42	65.0	1	4	292	0.00	30.077 
15:25	91.4	91.4	94.0	43	65.7	1	3	292	0.00	30.077 
15:30	91.6	91.6	93.9	42	65.2	0	2	292	0.00	30.076 
15:35	91.8	91.8	94.3	42	65.4	1	2	292	0.00	30.076 
15:40	92.1	92.1	94.4	41	65.0	1	2	292	0.00	30.076 
15:45	92.3	92.3	94.7	41	65.1	0	1	292	0.00	30.076 
15:50	91.8	91.8	93.9	41	64.7	0	1	292	0.00	30.076 
15:55	91.8	91.8	94.7	43	66.1	1	3	292	0.00	30.076 
16:00	92.3	92.3	94.3	40	64.4	1	3	292	0.00	30.076 
16:05	92.3	92.3	94.3	40	64.4	0	2	292	0.00	30.076 
16:10	92.7	92.7	94.9	40	64.8	1	3	292	0.00	30.076 
16:15	92.9	92.9	95.3	40	65.0	1	3	292	0.00	30.073 
16:20	92.9	92.9	94.8	39	64.2	0	3	292	0.00	30.073 
16:25	92.9	92.9	95.3	40	65.0	1	3	90	0.00	30.073 
16:30	92.5	92.5	95.0	41	65.3	1	3	90	0.00	30.072 
16:35	92.5	92.5	95.0	41	65.3	1	2	90	0.00	30.072 
16:40	92.7	92.7	95.4	41	65.5	0	1	90	0.00	30.072 
16:45	92.7	92.7	94.5	39	64.1	0	2	90	0.00	30.063 
16:50	92.7	92.7	94.9	40	64.8	0	1	90	0.00	30.063 
16:55	92.7	92.7	94.9	40	64.8	1	2	90	0.00	30.063 
17:00	92.5	92.5	94.6	40	64.6	0	2	45	0.00	30.062 
17:05	92.5	92.5	94.6	40	64.6	0	1	45	0.00	30.062 
17:10	92.5	92.5	94.6	40	64.6	0	2	45	0.00	30.062 
17:15	92.5	92.5	94.6	40	64.6	0	2	45	0.00	30.059 
17:20	92.1	92.1	93.9	40	64.3	0	2	45	0.00	30.059 
17:25	91.8	91.8	93.4	40	64.0	1	2	45	0.00	30.059 
17:30	91.6	91.6	93.9	42	65.2	1	5	45	0.00	30.058 
17:35	92.3	92.3	94.3	40	64.4	0	3	90	0.00	30.058 
17:40	92.9	92.9	94.4	38	63.5	0	2	338	0.00	30.058 
17:45	93.4	93.4	94.8	37	63.2	0	2	338	0.00	30.059 
17:50	93.6	93.6	95.1	37	63.4	1	4	270	0.00	30.059 
17:55	94.0	94.0	95.8	37	63.7	0	2	270	0.00	30.059 
18:00	94.0	94.0	95.3	36	62.9	1	3	270	0.00	30.055 
18:05	94.0	94.0	94.9	35	62.1	2	4	292	0.00	30.055 
18:10	93.6	93.6	94.3	35	61.8	1	3	292	0.00	30.055 
18:15	93.4	93.4	94.4	36	62.4	0	2	292	0.00	30.048 
18:20	93.4	93.4	94.8	37	63.2	0	2	292	0.00	30.048 
18:25	93.2	93.2	94.5	37	63.0	1	4	292	0.00	30.048 
18:30	93.2	93.2	94.5	37	63.0	1	3	292	0.00	30.047 
18:35	92.9	92.9	94.0	37	62.7	1	3	292	0.00	30.047 
18:40	92.7	92.7	93.7	37	62.6	2	5	270	0.00	30.047 
18:45	92.5	92.5	93.8	38	63.1	1	3	270	0.00	30.044 
18:50	92.1	92.1	93.5	39	63.5	0	3	270	0.00	30.044 
18:55	91.8	91.8	93.1	39	63.3	1	4	270	0.00	30.044 
19:00	91.8	91.8	93.1	39	63.3	1	3	270	0.00	30.042 
19:05	91.6	91.6	92.7	39	63.1	1	2	338	0.00	30.042 
19:10	91.6	91.6	92.7	39	63.1	1	3	292	0.00	30.042 
19:15	91.8	91.8	93.1	39	63.3	1	3	292	0.00	30.035 
19:20	91.8	91.8	93.1	39	63.3	1	3	292	0.00	30.035 
19:25	91.6	91.6	92.7	39	63.1	1	3	292	0.00	30.035 
19:30	91.6	91.6	92.7	39	63.1	0	2	292	0.00	30.034 
19:35	91.4	91.4	92.8	40	63.6	0	2	292	0.00	30.034 
19:40	91.4	91.4	92.8	40	63.6	0	3	292	0.00	30.034 
19:45	91.2	91.2	92.5	40	63.5	1	3	292	0.00	30.034 
19:50	91.2	91.2	92.5	40	63.5	1	3	292	0.00	30.034 
19:55	91.0	91.0	92.2	40	63.3	2	4	292	0.00	30.034 
20:00	90.7	90.7	91.7	40	63.0	2	3	292	0.00	30.032 
20:05	90.5	90.5	91.4	40	62.8	1	5	270	0.00	30.032 
20:10	90.3	90.3	91.1	40	62.7	1	3	270	0.00	30.032 
20:15	90.1	90.1	91.5	42	63.9	1	3	270	0.00	30.028 
20:20	89.9	89.9	90.9	41	63.0	2	3	292	0.00	30.028 
20:25	89.9	89.9	91.2	42	63.7	0	1	292	0.00	30.028 
20:30	89.7	89.7	90.9	42	63.5	0	2	292	0.00	30.032 
20:35	89.3	89.3	90.3	42	63.2	0	1	292	0.00	30.032 
20:40	89.0	89.0	90.2	43	63.6	0	1	292	0.00	30.032 
20:45	88.8	88.8	89.9	43	63.4	1	2	292	0.00	30.031 
20:50	88.6	88.6	89.9	44	63.9	0	1	292	0.00	30.031 
20:55	88.2	88.2	89.3	44	63.5	0	1	292	0.00	30.031 
21:00	88.0	88.0	89.4	45	64.0	0	1	292	0.00	30.037 
21:05	87.8	87.8	89.1	45	63.8	0	1	292	0.00	30.037 
21:10	87.4	87.4	88.8	46	64.0	0	0	---	0.00	30.037 
21:15	87.2	87.2	88.5	46	63.9	0	0	---	0.00	30.038 
21:20	87.0	87.0	88.5	47	64.3	0	0	---	0.00	30.038 
21:25	86.5	86.5	88.1	48	64.4	0	0	---	0.00	30.038 
21:30	86.1	86.1	87.8	49	64.7	0	0	---	0.00	30.037 
21:35	85.7	85.7	87.4	50	64.9	0	0	---	0.00	30.037 
21:40	85.3	85.3	87.1	51	65.1	0	0	---	0.00	30.037 
21:45	84.9	84.9	86.8	52	65.3	0	0	---	0.00	30.041 
21:50	84.7	84.7	86.5	52	65.1	0	0	---	0.00	30.041 
21:55	84.3	84.3	86.2	53	65.3	0	0	---	0.00	30.041 
22:00	84.0	84.0	86.0	54	65.5	0	0	---	0.00	30.038 
22:05	83.6	83.6	85.7	55	65.7	0	0	---	0.00	30.038 
22:10	83.2	83.2	85.1	55	65.3	0	0	---	0.00	30.038 
22:15	82.8	82.8	85.0	57	66.0	0	0	---	0.00	30.039 
22:20	82.6	82.6	84.7	57	65.8	0	0	---	0.00	30.039 
22:25	82.4	82.4	84.4	57	65.6	0	0	---	0.00	30.039 
22:30	82.2	82.2	84.3	58	65.9	0	0	---	0.00	30.040 
22:35	82.0	82.0	84.1	58	65.7	0	0	---	0.00	30.040 
22:40	81.8	81.8	83.8	58	65.6	0	0	---	0.00	30.040 
22:45	81.4	81.4	83.4	59	65.7	0	0	---	0.00	30.036 
22:50	81.2	81.2	83.2	59	65.5	0	0	---	0.00	30.036 
22:55	81.1	81.1	83.2	60	65.9	0	0	---	0.00	30.036 
23:00	80.9	80.9	82.9	60	65.7	0	0	---	0.00	30.038 
23:05	80.7	80.7	82.8	61	66.0	0	0	---	0.00	30.038 
23:10	80.7	80.7	82.8	61	66.0	0	1	292	0.00	30.038 
23:15	80.9	80.9	83.1	61	66.2	0	0	---	0.00	30.039 
23:20	80.9	80.9	83.1	61	66.2	0	0	---	0.00	30.039 
23:25	80.7	80.7	82.9	62	66.4	0	0	---	0.00	30.039 
23:30	80.5	80.5	82.7	62	66.3	0	0	---	0.00	30.038 
23:35	80.5	80.5	82.8	63	66.7	0	0	---	0.00	30.038 
23:40	80.7	80.7	82.9	62	66.4	0	0	---	0.00	30.038 
23:45	80.7	80.7	83.1	63	66.9	0	0	---	0.00	30.035 
23:50	80.5	80.5	82.8	63	66.7	0	0	---	0.00	30.035 
23:55	80.3	80.3	82.7	64	67.0	0	0	---	0.00	30.035 

CoCoRaHS
IN-AL-39
A2 Web Hosting
Creative Commons License
GoDaddy
search engine by freefind advanced

loaded 2018-11-19 11:16:54 • last modified 2010-11-18 10:43:29
Privacy PolicyDisclaimer
• wx.awcolley.com is powered by PmWiki v.2002016 •
• all content (unless otherwise noted) © 2018 A W Colley